owner,sensor,date,latitude,longitude,vertical_datum,sea_water_practical_salinity,qcFlag 
DISL,ioos:station:DISL:CATA:1,2017-02-01T00:00:00Z,30.3085,-88.1395,2.124,12.62,1111122 
DISL,ioos:station:DISL:CATA:1,2017-02-01T00:30:00Z,30.3085,-88.1395,2.129,12.74,1111122 
DISL,ioos:station:DISL:CATA:1,2017-02-01T01:00:00Z,30.3085,-88.1395,2.136,12.61,1111122 
DISL,ioos:station:DISL:CATA:1,2017-02-01T01:30:00Z,30.3085,-88.1395,2.148,12.51,1111122 
DISL,ioos:station:DISL:CATA:1,2017-02-01T02:00:00Z,30.3085,-88.1395,2.166,12.5,1111122 
DISL,ioos:station:DISL:CATA:1,2017-02-01T02:30:00Z,30.3085,-88.1395,2.189,12.42,1111122 
DISL,ioos:station:DISL:CATA:1,2017-02-01T03:00:00Z,30.3085,-88.1395,2.195,12.46,1111122 
DISL,ioos:station:DISL:CATA:1,2017-02-01T03:30:00Z,30.3085,-88.1395,2.201,12.61,1111122 
DISL,ioos:station:DISL:CATA:1,2017-02-01T04:00:00Z,30.3085,-88.1395,2.198,12.68,1111122 
DISL,ioos:station:DISL:CATA:1,2017-02-01T04:30:00Z,30.3085,-88.1395,2.209,12.86,1111122 
DISL,ioos:station:DISL:CATA:1,2017-02-01T05:00:00Z,30.3085,-88.1395,2.223,13.0,1111122 
DISL,ioos:station:DISL:CATA:1,2017-02-01T05:30:00Z,30.3085,-88.1395,2.227,13.25,1111122 
DISL,ioos:station:DISL:CATA:1,2017-02-01T06:00:00Z,30.3085,-88.1395,2.221,13.43,1111122 
DISL,ioos:station:DISL:CATA:1,2017-02-01T06:30:00Z,30.3085,-88.1395,2.216,13.88,1111122 
DISL,ioos:station:DISL:CATA:1,2017-02-01T07:00:00Z,30.3085,-88.1395,2.216,14.73,1111122 
DISL,ioos:station:DISL:CATA:1,2017-02-01T07:30:00Z,30.3085,-88.1395,2.215,15.73,1111122 
DISL,ioos:station:DISL:CATA:1,2017-02-01T08:00:00Z,30.3085,-88.1395,2.212,15.88,1111122 
DISL,ioos:station:DISL:CATA:1,2017-02-01T08:30:00Z,30.3085,-88.1395,2.204,15.95,1111122 
DISL,ioos:station:DISL:CATA:1,2017-02-01T09:00:00Z,30.3085,-88.1395,2.194,15.99,1111122 
DISL,ioos:station:DISL:CATA:1,2017-02-01T09:30:00Z,30.3085,-88.1395,2.186,16.52,1111122 
DISL,ioos:station:DISL:CATA:1,2017-02-01T10:00:00Z,30.3085,-88.1395,2.167,16.74,1111122 
DISL,ioos:station:DISL:CATA:1,2017-02-01T10:30:00Z,30.3085,-88.1395,2.149,15.47,1111122 
DISL,ioos:station:DISL:CATA:1,2017-02-01T11:00:00Z,30.3085,-88.1395,2.128,15.0,1111122 
DISL,ioos:station:DISL:CATA:1,2017-02-01T11:30:00Z,30.3085,-88.1395,2.104,13.8,1111122 
DISL,ioos:station:DISL:CATA:1,2017-02-01T12:00:00Z,30.3085,-88.1395,2.08,11.78,1111122 
DISL,ioos:station:DISL:CATA:1,2017-02-01T12:30:00Z,30.3085,-88.1395,2.052,11.22,1111122 
DISL,ioos:station:DISL:CATA:1,2017-02-01T13:00:00Z,30.3085,-88.1395,2.032,10.72,1111122 
DISL,ioos:station:DISL:CATA:1,2017-02-01T13:30:00Z,30.3085,-88.1395,2.016,9.8,1111122 
DISL,ioos:station:DISL:CATA:1,2017-02-01T14:00:00Z,30.3085,-88.1395,2.004,8.65,1111122 
DISL,ioos:station:DISL:CATA:1,2017-02-01T14:30:00Z,30.3085,-88.1395,2.002,8.11,1111122 
DISL,ioos:station:DISL:CATA:1,2017-02-01T15:00:00Z,30.3085,-88.1395,2.01,8.17,1111122 
DISL,ioos:station:DISL:CATA:1,2017-02-01T15:30:00Z,30.3085,-88.1395,2.025,7.97,1111122 
DISL,ioos:station:DISL:CATA:1,2017-02-01T16:00:00Z,30.3085,-88.1395,2.039,7.51,1111122 
DISL,ioos:station:DISL:CATA:1,2017-02-01T16:30:00Z,30.3085,-88.1395,2.049,6.95,1111122 
DISL,ioos:station:DISL:CATA:1,2017-02-01T17:00:00Z,30.3085,-88.1395,2.077,6.93,1111122 
DISL,ioos:station:DISL:CATA:1,2017-02-01T17:30:00Z,30.3085,-88.1395,2.079,6.49,1111122 
DISL,ioos:station:DISL:CATA:1,2017-02-01T18:00:00Z,30.3085,-88.1395,2.096,6.39,1111122 
DISL,ioos:station:DISL:CATA:1,2017-02-01T18:30:00Z,30.3085,-88.1395,2.099,6.5,1111122 
DISL,ioos:station:DISL:CATA:1,2017-02-01T19:00:00Z,30.3085,-88.1395,2.109,6.25,1111122 
DISL,ioos:station:DISL:CATA:1,2017-02-01T19:30:00Z,30.3085,-88.1395,2.12,6.7,1111122 
DISL,ioos:station:DISL:CATA:1,2017-02-01T20:00:00Z,30.3085,-88.1395,2.139,6.91,1111122 
DISL,ioos:station:DISL:CATA:1,2017-02-01T20:30:00Z,30.3085,-88.1395,2.15,6.85,1111122 
DISL,ioos:station:DISL:CATA:1,2017-02-01T21:00:00Z,30.3085,-88.1395,2.166,7.06,1111122 
DISL,ioos:station:DISL:CATA:1,2017-02-01T21:30:00Z,30.3085,-88.1395,2.182,7.1,1111122 
DISL,ioos:station:DISL:CATA:1,2017-02-01T22:00:00Z,30.3085,-88.1395,2.207,7.3,1111122 
DISL,ioos:station:DISL:CATA:1,2017-02-01T22:30:00Z,30.3085,-88.1395,2.193,11.88,1111122 
DISL,ioos:station:DISL:CATA:1,2017-02-01T23:00:00Z,30.3085,-88.1395,2.186,13.98,1111122 
DISL,ioos:station:DISL:CATA:1,2017-02-01T23:30:00Z,30.3085,-88.1395,2.184,14.99,1111122 
DISL,ioos:station:DISL:CATA:1,2017-02-02T00:00:00Z,30.3085,-88.1395,2.177,15.55,1111122 
DISL,ioos:station:DISL:CATA:1,2017-02-02T00:30:00Z,30.3085,-88.1395,2.171,15.75,1111122 
DISL,ioos:station:DISL:CATA:1,2017-02-02T01:00:00Z,30.3085,-88.1395,2.16,14.24,1111122 
DISL,ioos:station:DISL:CATA:1,2017-02-02T01:30:00Z,30.3085,-88.1395,2.158,8.24,1111122 
DISL,ioos:station:DISL:CATA:1,2017-02-02T02:00:00Z,30.3085,-88.1395,2.159,6.03,1111122 
DISL,ioos:station:DISL:CATA:1,2017-02-02T02:30:00Z,30.3085,-88.1395,2.159,5.83,1111122 
DISL,ioos:station:DISL:CATA:1,2017-02-02T03:00:00Z,30.3085,-88.1395,2.161,5.77,1111122 
DISL,ioos:station:DISL:CATA:1,2017-02-02T03:30:00Z,30.3085,-88.1395,2.169,5.66,1111122 
DISL,ioos:station:DISL:CATA:1,2017-02-02T04:00:00Z,30.3085,-88.1395,2.181,5.55,1111122 
DISL,ioos:station:DISL:CATA:1,2017-02-02T04:30:00Z,30.3085,-88.1395,2.182,5.72,1111122 
DISL,ioos:station:DISL:CATA:1,2017-02-02T05:00:00Z,30.3085,-88.1395,2.177,6.18,1111122 
DISL,ioos:station:DISL:CATA:1,2017-02-02T05:30:00Z,30.3085,-88.1395,2.177,6.42,1111122 
DISL,ioos:station:DISL:CATA:1,2017-02-02T06:00:00Z,30.3085,-88.1395,2.169,6.67,1111122 
DISL,ioos:station:DISL:CATA:1,2017-02-02T06:30:00Z,30.3085,-88.1395,2.167,7.17,1111122 
DISL,ioos:station:DISL:CATA:1,2017-02-02T07:00:00Z,30.3085,-88.1395,2.169,7.67,1111122 
DISL,ioos:station:DISL:CATA:1,2017-02-02T07:30:00Z,30.3085,-88.1395,2.155,8.16,1111122 
DISL,ioos:station:DISL:CATA:1,2017-02-02T08:00:00Z,30.3085,-88.1395,2.154,8.17,1111122 
DISL,ioos:station:DISL:CATA:1,2017-02-02T08:30:00Z,30.3085,-88.1395,2.16,8.18,1111122 
DISL,ioos:station:DISL:CATA:1,2017-02-02T09:00:00Z,30.3085,-88.1395,2.155,7.79,1111122 
DISL,ioos:station:DISL:CATA:1,2017-02-02T09:30:00Z,30.3085,-88.1395,2.155,8.06,1111122 
DISL,ioos:station:DISL:CATA:1,2017-02-02T10:00:00Z,30.3085,-88.1395,2.163,8.16,1111122 
DISL,ioos:station:DISL:CATA:1,2017-02-02T10:30:00Z,30.3085,-88.1395,2.152,8.03,1111122 
DISL,ioos:station:DISL:CATA:1,2017-02-02T11:00:00Z,30.3085,-88.1395,2.14,7.99,1111122 
DISL,ioos:station:DISL:CATA:1,2017-02-02T11:30:00Z,30.3085,-88.1395,2.123,7.94,1111122 
DISL,ioos:station:DISL:CATA:1,2017-02-02T12:00:00Z,30.3085,-88.1395,2.106,7.34,1111122 
DISL,ioos:station:DISL:CATA:1,2017-02-02T12:30:00Z,30.3085,-88.1395,2.083,6.99,1111122 
DISL,ioos:station:DISL:CATA:1,2017-02-02T13:00:00Z,30.3085,-88.1395,2.067,6.79,1111122 
DISL,ioos:station:DISL:CATA:1,2017-02-02T13:30:00Z,30.3085,-88.1395,2.054,6.7,1111122 
DISL,ioos:station:DISL:CATA:1,2017-02-02T14:00:00Z,30.3085,-88.1395,2.057,6.7,1111122 
DISL,ioos:station:DISL:CATA:1,2017-02-02T14:30:00Z,30.3085,-88.1395,2.063,6.66,1111122 
DISL,ioos:station:DISL:CATA:1,2017-02-02T15:00:00Z,30.3085,-88.1395,2.08,6.57,1111122 
DISL,ioos:station:DISL:CATA:1,2017-02-02T15:30:00Z,30.3085,-88.1395,2.094,6.56,1111122 
DISL,ioos:station:DISL:CATA:1,2017-02-02T16:00:00Z,30.3085,-88.1395,2.111,6.71,1111122 
DISL,ioos:station:DISL:CATA:1,2017-02-02T16:30:00Z,30.3085,-88.1395,2.127,7.07,1111122 
DISL,ioos:station:DISL:CATA:1,2017-02-02T17:00:00Z,30.3085,-88.1395,2.145,7.19,1111122 
DISL,ioos:station:DISL:CATA:1,2017-02-02T17:30:00Z,30.3085,-88.1395,2.142,6.89,1111122 
DISL,ioos:station:DISL:CATA:1,2017-02-02T18:00:00Z,30.3085,-88.1395,2.14,6.33,1111122 
DISL,ioos:station:DISL:CATA:1,2017-02-02T18:30:00Z,30.3085,-88.1395,2.151,6.21,1111122 
DISL,ioos:station:DISL:CATA:1,2017-02-02T19:00:00Z,30.3085,-88.1395,2.16,6.24,1111122 
DISL,ioos:station:DISL:CATA:1,2017-02-02T19:30:00Z,30.3085,-88.1395,2.169,6.26,1111122 
DISL,ioos:station:DISL:CATA:1,2017-02-02T20:00:00Z,30.3085,-88.1395,2.178,9.07,1111122 
DISL,ioos:station:DISL:CATA:1,2017-02-02T20:30:00Z,30.3085,-88.1395,2.195,14.85,1111122 
DISL,ioos:station:DISL:CATA:1,2017-02-02T21:00:00Z,30.3085,-88.1395,2.2,18.21,1111122 
DISL,ioos:station:DISL:CATA:1,2017-02-02T21:30:00Z,30.3085,-88.1395,2.202,19.39,1111122 
DISL,ioos:station:DISL:CATA:1,2017-02-02T22:00:00Z,30.3085,-88.1395,2.216,20.13,1111122 
DISL,ioos:station:DISL:CATA:1,2017-02-02T22:30:00Z,30.3085,-88.1395,2.215,19.97,1111122 
DISL,ioos:station:DISL:CATA:1,2017-02-02T23:00:00Z,30.3085,-88.1395,2.22,20.18,1111122 
DISL,ioos:station:DISL:CATA:1,2017-02-02T23:30:00Z,30.3085,-88.1395,2.217,20.39,1111122 
DISL,ioos:station:DISL:CATA:1,2017-02-03T00:00:00Z,30.3085,-88.1395,2.213,20.42,1111122 
DISL,ioos:station:DISL:CATA:1,2017-02-03T00:30:00Z,30.3085,-88.1395,2.19,20.44,1111122 
DISL,ioos:station:DISL:CATA:1,2017-02-03T01:00:00Z,30.3085,-88.1395,2.18,20.4,1111122 
DISL,ioos:station:DISL:CATA:1,2017-02-03T01:30:00Z,30.3085,-88.1395,2.166,20.53,1111122 
DISL,ioos:station:DISL:CATA:1,2017-02-03T02:00:00Z,30.3085,-88.1395,2.152,17.72,1111122 
DISL,ioos:station:DISL:CATA:1,2017-02-03T02:30:00Z,30.3085,-88.1395,2.127,8.61,1111122 
DISL,ioos:station:DISL:CATA:1,2017-02-03T03:00:00Z,30.3085,-88.1395,2.119,7.29,1111122 
DISL,ioos:station:DISL:CATA:1,2017-02-03T03:30:00Z,30.3085,-88.1395,2.133,6.22,1111122 
DISL,ioos:station:DISL:CATA:1,2017-02-03T04:00:00Z,30.3085,-88.1395,2.133,6.3,1111122 
DISL,ioos:station:DISL:CATA:1,2017-02-03T04:30:00Z,30.3085,-88.1395,2.136,6.63,1111122 
DISL,ioos:station:DISL:CATA:1,2017-02-03T05:00:00Z,30.3085,-88.1395,2.123,6.87,1111122 
DISL,ioos:station:DISL:CATA:1,2017-02-03T05:30:00Z,30.3085,-88.1395,2.127,6.96,1111122 
DISL,ioos:station:DISL:CATA:1,2017-02-03T06:00:00Z,30.3085,-88.1395,2.114,6.99,1111122 
DISL,ioos:station:DISL:CATA:1,2017-02-03T06:30:00Z,30.3085,-88.1395,2.101,6.97,1111122 
DISL,ioos:station:DISL:CATA:1,2017-02-03T07:00:00Z,30.3085,-88.1395,2.088,6.95,1111122 
DISL,ioos:station:DISL:CATA:1,2017-02-03T07:30:00Z,30.3085,-88.1395,2.069,6.8,1111122 
DISL,ioos:station:DISL:CATA:1,2017-02-03T08:00:00Z,30.3085,-88.1395,2.069,6.57,1111122 
DISL,ioos:station:DISL:CATA:1,2017-02-03T08:30:00Z,30.3085,-88.1395,2.073,6.28,1111122 
DISL,ioos:station:DISL:CATA:1,2017-02-03T09:00:00Z,30.3085,-88.1395,2.077,6.24,1111122 
DISL,ioos:station:DISL:CATA:1,2017-02-03T09:30:00Z,30.3085,-88.1395,2.09,6.21,1111122 
DISL,ioos:station:DISL:CATA:1,2017-02-03T10:00:00Z,30.3085,-88.1395,2.101,6.07,1111122 
DISL,ioos:station:DISL:CATA:1,2017-02-03T10:30:00Z,30.3085,-88.1395,2.107,6.01,1111122 
DISL,ioos:station:DISL:CATA:1,2017-02-03T11:00:00Z,30.3085,-88.1395,2.102,6.05,1111122 
DISL,ioos:station:DISL:CATA:1,2017-02-03T11:30:00Z,30.3085,-88.1395,2.109,6.0,1111122 
DISL,ioos:station:DISL:CATA:1,2017-02-03T12:00:00Z,30.3085,-88.1395,2.099,6.43,1111122 
DISL,ioos:station:DISL:CATA:1,2017-02-03T12:30:00Z,30.3085,-88.1395,2.098,6.43,1111122 
DISL,ioos:station:DISL:CATA:1,2017-02-03T13:00:00Z,30.3085,-88.1395,2.088,6.58,1111122 
DISL,ioos:station:DISL:CATA:1,2017-02-03T13:30:00Z,30.3085,-88.1395,2.088,7.35,1111122 
DISL,ioos:station:DISL:CATA:1,2017-02-03T14:00:00Z,30.3085,-88.1395,2.096,8.21,1111122 
DISL,ioos:station:DISL:CATA:1,2017-02-03T14:30:00Z,30.3085,-88.1395,2.11,5.86,1111122 
DISL,ioos:station:DISL:CATA:1,2017-02-03T15:00:00Z,30.3085,-88.1395,2.116,5.51,1111122 
DISL,ioos:station:DISL:CATA:1,2017-02-03T15:30:00Z,30.3085,-88.1395,2.141,5.54,1111122 
DISL,ioos:station:DISL:CATA:1,2017-02-03T16:00:00Z,30.3085,-88.1395,2.171,5.34,1111122 
DISL,ioos:station:DISL:CATA:1,2017-02-03T16:30:00Z,30.3085,-88.1395,2.195,5.29,1111122 
DISL,ioos:station:DISL:CATA:1,2017-02-03T17:00:00Z,30.3085,-88.1395,2.208,5.35,1111122 
DISL,ioos:station:DISL:CATA:1,2017-02-03T17:30:00Z,30.3085,-88.1395,2.189,7.36,1111122 
DISL,ioos:station:DISL:CATA:1,2017-02-03T18:00:00Z,30.3085,-88.1395,2.173,15.0,1111122 
DISL,ioos:station:DISL:CATA:1,2017-02-03T18:30:00Z,30.3085,-88.1395,2.18,17.5,1111122 
DISL,ioos:station:DISL:CATA:1,2017-02-03T19:00:00Z,30.3085,-88.1395,2.174,19.4,1111122 
DISL,ioos:station:DISL:CATA:1,2017-02-03T19:30:00Z,30.3085,-88.1395,2.167,20.05,1111122 
DISL,ioos:station:DISL:CATA:1,2017-02-03T20:00:00Z,30.3085,-88.1395,2.19,20.83,1111122 
DISL,ioos:station:DISL:CATA:1,2017-02-03T20:30:00Z,30.3085,-88.1395,2.196,21.09,1111122 
DISL,ioos:station:DISL:CATA:1,2017-02-03T21:00:00Z,30.3085,-88.1395,2.197,20.11,1111122 
DISL,ioos:station:DISL:CATA:1,2017-02-03T21:30:00Z,30.3085,-88.1395,2.159,20.88,1111122 
DISL,ioos:station:DISL:CATA:1,2017-02-03T22:00:00Z,30.3085,-88.1395,2.142,21.37,1111122 
DISL,ioos:station:DISL:CATA:1,2017-02-03T22:30:00Z,30.3085,-88.1395,2.138,21.77,1111122 
DISL,ioos:station:DISL:CATA:1,2017-02-03T23:00:00Z,30.3085,-88.1395,2.159,21.99,1111122 
DISL,ioos:station:DISL:CATA:1,2017-02-03T23:30:00Z,30.3085,-88.1395,2.154,22.14,1111122 
DISL,ioos:station:DISL:CATA:1,2017-02-04T00:00:00Z,30.3085,-88.1395,2.134,22.21,1111122 
DISL,ioos:station:DISL:CATA:1,2017-02-04T00:30:00Z,30.3085,-88.1395,2.098,22.25,1111122 
DISL,ioos:station:DISL:CATA:1,2017-02-04T01:00:00Z,30.3085,-88.1395,2.066,22.37,1111122 
DISL,ioos:station:DISL:CATA:1,2017-02-04T01:30:00Z,30.3085,-88.1395,2.044,22.09,1111122 
DISL,ioos:station:DISL:CATA:1,2017-02-04T02:00:00Z,30.3085,-88.1395,2.04,10.19,1111122 
DISL,ioos:station:DISL:CATA:1,2017-02-04T02:30:00Z,30.3085,-88.1395,2.027,5.91,1111122 
DISL,ioos:station:DISL:CATA:1,2017-02-04T03:00:00Z,30.3085,-88.1395,1.998,5.04,1111122 
DISL,ioos:station:DISL:CATA:1,2017-02-04T03:30:00Z,30.3085,-88.1395,1.982,4.68,1111122 
DISL,ioos:station:DISL:CATA:1,2017-02-04T04:00:00Z,30.3085,-88.1395,1.966,4.63,1111122 
DISL,ioos:station:DISL:CATA:1,2017-02-04T04:30:00Z,30.3085,-88.1395,1.942,4.79,1111122 
DISL,ioos:station:DISL:CATA:1,2017-02-04T05:00:00Z,30.3085,-88.1395,1.92,4.89,1111122 
DISL,ioos:station:DISL:CATA:1,2017-02-04T05:30:00Z,30.3085,-88.1395,1.908,4.89,1111122 
DISL,ioos:station:DISL:CATA:1,2017-02-04T06:00:00Z,30.3085,-88.1395,1.884,5.03,1111122 
DISL,ioos:station:DISL:CATA:1,2017-02-04T06:30:00Z,30.3085,-88.1395,1.87,5.14,1111122 
DISL,ioos:station:DISL:CATA:1,2017-02-04T07:00:00Z,30.3085,-88.1395,1.872,5.08,1111122 
DISL,ioos:station:DISL:CATA:1,2017-02-04T07:30:00Z,30.3085,-88.1395,1.857,4.96,1111122 
DISL,ioos:station:DISL:CATA:1,2017-02-04T08:00:00Z,30.3085,-88.1395,1.835,4.99,1111122 
DISL,ioos:station:DISL:CATA:1,2017-02-04T08:30:00Z,30.3085,-88.1395,1.828,4.95,1111122 
DISL,ioos:station:DISL:CATA:1,2017-02-04T09:00:00Z,30.3085,-88.1395,1.828,4.96,1111122 
DISL,ioos:station:DISL:CATA:1,2017-02-04T09:30:00Z,30.3085,-88.1395,1.818,4.94,1111122 
DISL,ioos:station:DISL:CATA:1,2017-02-04T10:00:00Z,30.3085,-88.1395,1.818,4.9,1111122 
DISL,ioos:station:DISL:CATA:1,2017-02-04T10:30:00Z,30.3085,-88.1395,1.824,4.89,1111122 
DISL,ioos:station:DISL:CATA:1,2017-02-04T11:00:00Z,30.3085,-88.1395,1.841,4.89,1111122 
DISL,ioos:station:DISL:CATA:1,2017-02-04T11:30:00Z,30.3085,-88.1395,1.859,4.87,1111122 
DISL,ioos:station:DISL:CATA:1,2017-02-04T12:00:00Z,30.3085,-88.1395,1.883,4.95,1111122 
DISL,ioos:station:DISL:CATA:1,2017-02-04T12:30:00Z,30.3085,-88.1395,1.897,5.04,1111122 
DISL,ioos:station:DISL:CATA:1,2017-02-04T13:00:00Z,30.3085,-88.1395,1.898,5.11,1111122 
DISL,ioos:station:DISL:CATA:1,2017-02-04T13:30:00Z,30.3085,-88.1395,1.902,5.18,1111122 
DISL,ioos:station:DISL:CATA:1,2017-02-04T14:00:00Z,30.3085,-88.1395,1.914,5.24,1111122 
DISL,ioos:station:DISL:CATA:1,2017-02-04T14:30:00Z,30.3085,-88.1395,1.918,5.24,1111122 
DISL,ioos:station:DISL:CATA:1,2017-02-04T15:00:00Z,30.3085,-88.1395,1.937,5.22,1111122 
DISL,ioos:station:DISL:CATA:1,2017-02-04T15:30:00Z,30.3085,-88.1395,1.962,5.13,1111122 
DISL,ioos:station:DISL:CATA:1,2017-02-04T16:00:00Z,30.3085,-88.1395,2.01,5.15,1111122 
DISL,ioos:station:DISL:CATA:1,2017-02-04T16:30:00Z,30.3085,-88.1395,2.042,4.99,1111122 
DISL,ioos:station:DISL:CATA:1,2017-02-04T17:00:00Z,30.3085,-88.1395,2.059,5.13,1111122 
DISL,ioos:station:DISL:CATA:1,2017-02-04T17:30:00Z,30.3085,-88.1395,2.09,5.15,1111122 
DISL,ioos:station:DISL:CATA:1,2017-02-04T18:00:00Z,30.3085,-88.1395,2.12,4.86,1111122 
DISL,ioos:station:DISL:CATA:1,2017-02-04T18:30:00Z,30.3085,-88.1395,2.147,5.28,1111122 
DISL,ioos:station:DISL:CATA:1,2017-02-04T19:00:00Z,30.3085,-88.1395,2.174,6.9,1111122 
DISL,ioos:station:DISL:CATA:1,2017-02-04T19:30:00Z,30.3085,-88.1395,2.194,9.41,1111122 
DISL,ioos:station:DISL:CATA:1,2017-02-04T20:00:00Z,30.3085,-88.1395,2.21,9.12,1111122 
DISL,ioos:station:DISL:CATA:1,2017-02-04T20:30:00Z,30.3085,-88.1395,2.233,9.74,1111122 
DISL,ioos:station:DISL:CATA:1,2017-02-04T21:00:00Z,30.3085,-88.1395,2.256,12.48,1111122 
DISL,ioos:station:DISL:CATA:1,2017-02-04T21:30:00Z,30.3085,-88.1395,2.271,14.11,1111122 
DISL,ioos:station:DISL:CATA:1,2017-02-04T22:00:00Z,30.3085,-88.1395,2.288,13.87,1111122 
DISL,ioos:station:DISL:CATA:1,2017-02-04T22:30:00Z,30.3085,-88.1395,2.289,13.12,1111122 
DISL,ioos:station:DISL:CATA:1,2017-02-04T23:00:00Z,30.3085,-88.1395,2.284,12.68,1111122 
DISL,ioos:station:DISL:CATA:1,2017-02-04T23:30:00Z,30.3085,-88.1395,2.283,12.38,1111122 
DISL,ioos:station:DISL:CATA:1,2017-02-05T00:00:00Z,30.3085,-88.1395,2.278,11.96,1111122 
DISL,ioos:station:DISL:CATA:1,2017-02-05T00:30:00Z,30.3085,-88.1395,2.264,11.83,1111122 
DISL,ioos:station:DISL:CATA:1,2017-02-05T01:00:00Z,30.3085,-88.1395,2.244,11.88,1111122 
DISL,ioos:station:DISL:CATA:1,2017-02-05T01:30:00Z,30.3085,-88.1395,2.22,12.41,1111122 
DISL,ioos:station:DISL:CATA:1,2017-02-05T02:00:00Z,30.3085,-88.1395,2.204,12.24,1111122 
DISL,ioos:station:DISL:CATA:1,2017-02-05T02:30:00Z,30.3085,-88.1395,2.176,11.57,1111122 
DISL,ioos:station:DISL:CATA:1,2017-02-05T03:00:00Z,30.3085,-88.1395,2.154,7.5,1111122 
DISL,ioos:station:DISL:CATA:1,2017-02-05T03:30:00Z,30.3085,-88.1395,2.127,5.85,1111122 
DISL,ioos:station:DISL:CATA:1,2017-02-05T04:00:00Z,30.3085,-88.1395,2.103,4.93,1111122 
DISL,ioos:station:DISL:CATA:1,2017-02-05T04:30:00Z,30.3085,-88.1395,2.072,4.45,1111122 
DISL,ioos:station:DISL:CATA:1,2017-02-05T05:00:00Z,30.3085,-88.1395,2.037,4.51,1111122 
DISL,ioos:station:DISL:CATA:1,2017-02-05T05:30:00Z,30.3085,-88.1395,2.005,4.19,1111122 
DISL,ioos:station:DISL:CATA:1,2017-02-05T06:00:00Z,30.3085,-88.1395,1.971,4.12,1111122 
DISL,ioos:station:DISL:CATA:1,2017-02-05T06:30:00Z,30.3085,-88.1395,1.95,3.95,1111122 
DISL,ioos:station:DISL:CATA:1,2017-02-05T07:00:00Z,30.3085,-88.1395,1.937,3.9,1111122 
DISL,ioos:station:DISL:CATA:1,2017-02-05T07:30:00Z,30.3085,-88.1395,1.922,3.85,1111122 
DISL,ioos:station:DISL:CATA:1,2017-02-05T08:00:00Z,30.3085,-88.1395,1.897,3.81,1111122 
DISL,ioos:station:DISL:CATA:1,2017-02-05T08:30:00Z,30.3085,-88.1395,1.884,3.82,1111122 
DISL,ioos:station:DISL:CATA:1,2017-02-05T09:00:00Z,30.3085,-88.1395,1.899,3.82,1111122 
DISL,ioos:station:DISL:CATA:1,2017-02-05T09:30:00Z,30.3085,-88.1395,1.903,3.94,1111122 
DISL,ioos:station:DISL:CATA:1,2017-02-05T10:00:00Z,30.3085,-88.1395,1.914,3.97,1111122 
DISL,ioos:station:DISL:CATA:1,2017-02-05T10:30:00Z,30.3085,-88.1395,1.92,4.0,1111122 
DISL,ioos:station:DISL:CATA:1,2017-02-05T11:00:00Z,30.3085,-88.1395,1.926,4.1,1111122 
DISL,ioos:station:DISL:CATA:1,2017-02-05T11:30:00Z,30.3085,-88.1395,1.937,4.47,1111122 
DISL,ioos:station:DISL:CATA:1,2017-02-05T12:00:00Z,30.3085,-88.1395,1.959,4.73,1111122 
DISL,ioos:station:DISL:CATA:1,2017-02-05T12:30:00Z,30.3085,-88.1395,1.966,4.77,1111122 
DISL,ioos:station:DISL:CATA:1,2017-02-05T13:00:00Z,30.3085,-88.1395,1.972,4.5,1111122 
DISL,ioos:station:DISL:CATA:1,2017-02-05T13:30:00Z,30.3085,-88.1395,2.003,4.27,1111122 
DISL,ioos:station:DISL:CATA:1,2017-02-05T14:00:00Z,30.3085,-88.1395,2.019,4.13,1111122 
DISL,ioos:station:DISL:CATA:1,2017-02-05T14:30:00Z,30.3085,-88.1395,2.039,4.23,1111122 
DISL,ioos:station:DISL:CATA:1,2017-02-05T15:00:00Z,30.3085,-88.1395,2.054,4.85,1111122 
DISL,ioos:station:DISL:CATA:1,2017-02-05T15:30:00Z,30.3085,-88.1395,2.09,5.83,1111122 
DISL,ioos:station:DISL:CATA:1,2017-02-05T16:00:00Z,30.3085,-88.1395,2.109,6.13,1111122 
DISL,ioos:station:DISL:CATA:1,2017-02-05T16:30:00Z,30.3085,-88.1395,2.122,6.24,1111122 
DISL,ioos:station:DISL:CATA:1,2017-02-05T17:00:00Z,30.3085,-88.1395,2.139,5.73,1111122 
DISL,ioos:station:DISL:CATA:1,2017-02-05T17:30:00Z,30.3085,-88.1395,2.164,5.78,1111122 
DISL,ioos:station:DISL:CATA:1,2017-02-05T18:00:00Z,30.3085,-88.1395,2.173,6.67,1111122 
DISL,ioos:station:DISL:CATA:1,2017-02-05T18:30:00Z,30.3085,-88.1395,2.187,7.34,1111122 
DISL,ioos:station:DISL:CATA:1,2017-02-05T19:00:00Z,30.3085,-88.1395,2.207,9.35,1111122 
DISL,ioos:station:DISL:CATA:1,2017-02-05T19:30:00Z,30.3085,-88.1395,2.227,11.37,1111122 
DISL,ioos:station:DISL:CATA:1,2017-02-05T20:00:00Z,30.3085,-88.1395,2.238,12.82,1111122 
DISL,ioos:station:DISL:CATA:1,2017-02-05T20:30:00Z,30.3085,-88.1395,2.258,13.55,1111122 
DISL,ioos:station:DISL:CATA:1,2017-02-05T21:00:00Z,30.3085,-88.1395,2.274,14.27,1111122 
DISL,ioos:station:DISL:CATA:1,2017-02-05T21:30:00Z,30.3085,-88.1395,2.289,14.37,1111122 
DISL,ioos:station:DISL:CATA:1,2017-02-05T22:00:00Z,30.3085,-88.1395,2.295,14.15,1111122 
DISL,ioos:station:DISL:CATA:1,2017-02-05T22:30:00Z,30.3085,-88.1395,2.296,13.0,1111122 
DISL,ioos:station:DISL:CATA:1,2017-02-05T23:00:00Z,30.3085,-88.1395,2.288,13.33,1111122 
DISL,ioos:station:DISL:CATA:1,2017-02-05T23:30:00Z,30.3085,-88.1395,2.272,17.51,1111122 
DISL,ioos:station:DISL:CATA:1,2017-02-06T00:00:00Z,30.3085,-88.1395,2.277,19.39,1111122 
DISL,ioos:station:DISL:CATA:1,2017-02-06T00:30:00Z,30.3085,-88.1395,2.268,19.82,1111122 
DISL,ioos:station:DISL:CATA:1,2017-02-06T01:00:00Z,30.3085,-88.1395,2.258,20.34,1111122 
DISL,ioos:station:DISL:CATA:1,2017-02-06T01:30:00Z,30.3085,-88.1395,2.238,20.5,1111122 
DISL,ioos:station:DISL:CATA:1,2017-02-06T02:00:00Z,30.3085,-88.1395,2.222,20.68,1111122 
DISL,ioos:station:DISL:CATA:1,2017-02-06T02:30:00Z,30.3085,-88.1395,2.205,20.8,1111122 
DISL,ioos:station:DISL:CATA:1,2017-02-06T03:00:00Z,30.3085,-88.1395,2.192,20.6,1111122 
DISL,ioos:station:DISL:CATA:1,2017-02-06T03:30:00Z,30.3085,-88.1395,2.161,21.13,1111122 
DISL,ioos:station:DISL:CATA:1,2017-02-06T04:00:00Z,30.3085,-88.1395,2.126,19.08,1111122 
DISL,ioos:station:DISL:CATA:1,2017-02-06T04:30:00Z,30.3085,-88.1395,2.092,13.72,1111122 
DISL,ioos:station:DISL:CATA:1,2017-02-06T05:00:00Z,30.3085,-88.1395,2.054,7.94,1111122 
DISL,ioos:station:DISL:CATA:1,2017-02-06T05:30:00Z,30.3085,-88.1395,2.018,6.8,1111122 
DISL,ioos:station:DISL:CATA:1,2017-02-06T06:00:00Z,30.3085,-88.1395,1.978,6.5,1111122 
DISL,ioos:station:DISL:CATA:1,2017-02-06T06:30:00Z,30.3085,-88.1395,1.944,6.35,1111122 
DISL,ioos:station:DISL:CATA:1,2017-02-06T07:00:00Z,30.3085,-88.1395,1.905,6.4,1111122 
DISL,ioos:station:DISL:CATA:1,2017-02-06T07:30:00Z,30.3085,-88.1395,1.878,6.35,1111122 
DISL,ioos:station:DISL:CATA:1,2017-02-06T08:00:00Z,30.3085,-88.1395,1.852,6.25,1111122 
DISL,ioos:station:DISL:CATA:1,2017-02-06T08:30:00Z,30.3085,-88.1395,1.836,6.19,1111122 
DISL,ioos:station:DISL:CATA:1,2017-02-06T09:00:00Z,30.3085,-88.1395,1.821,6.2,1111122 
DISL,ioos:station:DISL:CATA:1,2017-02-06T09:30:00Z,30.3085,-88.1395,1.816,6.19,1111122 
DISL,ioos:station:DISL:CATA:1,2017-02-06T10:00:00Z,30.3085,-88.1395,1.82,6.21,1111122 
DISL,ioos:station:DISL:CATA:1,2017-02-06T10:30:00Z,30.3085,-88.1395,1.826,6.32,1111122 
DISL,ioos:station:DISL:CATA:1,2017-02-06T11:00:00Z,30.3085,-88.1395,1.824,6.33,1111122 
DISL,ioos:station:DISL:CATA:1,2017-02-06T11:30:00Z,30.3085,-88.1395,1.838,6.31,1111122 
DISL,ioos:station:DISL:CATA:1,2017-02-06T12:00:00Z,30.3085,-88.1395,1.849,6.37,1111122 
DISL,ioos:station:DISL:CATA:1,2017-02-06T12:30:00Z,30.3085,-88.1395,1.864,6.48,1111122 
DISL,ioos:station:DISL:CATA:1,2017-02-06T13:00:00Z,30.3085,-88.1395,1.882,6.53,1111122 
DISL,ioos:station:DISL:CATA:1,2017-02-06T13:30:00Z,30.3085,-88.1395,1.906,6.36,1111122 
DISL,ioos:station:DISL:CATA:1,2017-02-06T14:00:00Z,30.3085,-88.1395,1.933,6.09,1111122 
DISL,ioos:station:DISL:CATA:1,2017-02-06T14:30:00Z,30.3085,-88.1395,1.957,6.0,1111122 
DISL,ioos:station:DISL:CATA:1,2017-02-06T15:00:00Z,30.3085,-88.1395,1.986,6.06,1111122 